GAOFEN 12 (02)

导读

GAOFEN 12 (02)即高分十二号02星,是中国于2021年3月31日在酒泉卫星发射中心,通过长征四号丙运载火箭成功发射的高分辨率对地观测卫星,卫星顺利进入预定轨道。该卫星主要服务于国土普查、城市规划、土地确权、路网设计、农作物估产和防灾减灾等民生与发展领域,将为中国国民经济建设提供高精度空间信息支撑。本次发射也是长征系列运载火箭的第364次航天飞行。

基本信息
目录编号:
48079
目录名称:
GAOFEN 12 (02)
国际标识:
2021-026A
轨道中心:
EARTH
卫星名称:
GAOFEN 12 (02)
卫星全名:
--
卫星状态:
在轨 (已飞行1991 天)
发射日期:
2021-03-30 UTC
国别 :
中国 (CN)
星等 :
--
轨道信息
数据来源 国际轨道数据 AOE轨道数据
星历时间 2026-09-11T06:26:13+0800
7小时前
查看轨道信息
2026-09-11T01:00:00+0800
12小时前
查看轨道信息
半长轴 7006.35km 7006.349km
偏心率 0.0004009 0.0003937
轨道倾角 97.999° 97.998°
近地点辐角 333.556° 332.127°
升交点赤经 251.794° 251.569°
平近点角 26.544° 261.399°
近地点 625.404km 625.453km
远地点 631.022km 630.971km
周期 97.274分钟 97.274分钟
每日圈数 14.803521 14.803525
详细信息
使用方式:
暂无
2D轨道图
3D轨道图
轨道高度分析图
轨道倾角分析图
轨道综合分析图
查看轨道综合分析图
交会数据列表
事件ID 空间交会对象 最接近时刻(TCA) 交会距离 交会风险概率(CRP) 交会风险指数(CRI) 操作
CDM_260904-011104-807906-452525
2026-09-04T
01:11:33+0000
0.694 km
远距离
6.694746E-5 中风险 0.72
CDM_260912-162504-807906-514423
2026-09-12T
16:25:39+0000
2.014 km
极远距离
2.708854E-6 低风险 0.44
CDM_260913-034704-807906-892923
2026-09-13T
03:47:40+0000
2.328 km
极远距离
1.954051E-6 低风险 0.41
CDM_260913-053404-807906-978121
2026-09-13T
05:34:09+0000
2.045 km
极远距离
1.538168E-6 低风险 0.39
CDM_260912-113204-807906-893926
2026-09-12T
11:32:53+0000
2.743 km
极远距离
1.447253E-6 低风险 0.38
与全量物体交会距离演化趋势
与全量物体交会风险概率演化趋势